EWG61B EGLL-EDDL

Flight info

Callsign EWG61B
Flight time N/A
Altitude 33000
Route BPK Q295 BRAIN M197 REDFA DCT TACHA DCT PAM P62 PISAP PISAP1A
Aircraft A320/M-SDE3FGHIRWY/LB1

Departure

Time 2026-05-04 21:49
Airport London Heathrow Airport (EGLL)

Arrival

Time N/A
Airport Düsseldorf Airport (EDDL)
Time Latitude Longitude Altitude Speed Heading
2026-05-04 21:07 51.46829 -0.44981 87 ft 0 kts 360°
2026-05-04 21:38 51.46817 -0.44981 91 ft 4 kts 360°
2026-05-04 21:38 51.46791 -0.44981 89 ft 2 kts 360°
2026-05-04 21:38 51.46769 -0.44979 90 ft 4 kts 340°
2026-05-04 21:38 51.46751 -0.44956 90 ft 4 kts 275°
2026-05-04 21:39 51.46751 -0.44939 90 ft 0 kts 270°
2026-05-04 21:41 51.46749 -0.45031 87 ft 14 kts 259°
2026-05-04 21:41 51.46674 -0.45096 90 ft 11 kts 226°
2026-05-04 21:42 51.46662 -0.45213 87 ft 10 kts 269°
2026-05-04 21:42 51.46662 -0.45319 87 ft 9 kts 270°
2026-05-04 21:42 51.46662 -0.45423 87 ft 13 kts 270°
2026-05-04 21:42 51.46661 -0.45643 87 ft 23 kts 269°
2026-05-04 21:43 51.46660 -0.45911 87 ft 25 kts 270°
2026-05-04 21:43 51.46659 -0.46195 89 ft 26 kts 269°
2026-05-04 21:43 51.46659 -0.46490 89 ft 27 kts 270°
2026-05-04 21:43 51.46657 -0.46765 87 ft 23 kts 269°
2026-05-04 21:44 51.46657 -0.46994 87 ft 20 kts 270°
2026-05-04 21:44 51.46656 -0.47227 87 ft 22 kts 269°
2026-05-04 21:44 51.46655 -0.47460 87 ft 20 kts 270°
2026-05-04 21:44 51.46654 -0.47650 87 ft 15 kts 270°
2026-05-04 21:45 51.46654 -0.47812 87 ft 13 kts 270°
2026-05-04 21:45 51.46653 -0.47950 87 ft 12 kts 270°
2026-05-04 21:45 51.46653 -0.48081 87 ft 13 kts 269°
2026-05-04 21:45 51.46652 -0.48223 87 ft 12 kts 270°
2026-05-04 21:46 51.46652 -0.48351 87 ft 13 kts 270°
2026-05-04 21:46 51.46651 -0.48523 87 ft 15 kts 270°
2026-05-04 21:46 51.46651 -0.48676 87 ft 12 kts 270°
2026-05-04 21:46 51.46609 -0.48766 89 ft 10 kts 203°
2026-05-04 21:47 51.46542 -0.48791 87 ft 9 kts 182°
2026-05-04 21:47 51.46492 -0.48757 88 ft 7 kts 137°
2026-05-04 21:47 51.46477 -0.48699 91 ft 5 kts 98°
2026-05-04 21:47 51.46477 -0.48657 90 ft 3 kts 92°
2026-05-04 21:48 51.46476 -0.48545 88 ft 31 kts 90°
2026-05-04 21:48 51.46479 -0.47776 87 ft 102 kts 89°
2026-05-04 21:48 51.46486 -0.46332 89 ft 155 kts 89°
2026-05-04 21:48 51.46488 -0.44497 526 ft 167 kts 88°
2026-05-04 21:49 51.46502 -0.42632 1405 ft 164 kts 87°
2026-05-04 21:49 51.46793 -0.40772 1778 ft 185 kts 59°
2026-05-04 21:49 51.47659 -0.39062 2160 ft 209 kts 49°
2026-05-04 21:49 51.48647 -0.37212 2646 ft 233 kts 50°
2026-05-04 21:50 51.49731 -0.35163 3289 ft 249 kts 50°
2026-05-04 21:50 51.50869 -0.33001 4159 ft 256 kts 49°
2026-05-04 21:50 51.52003 -0.30762 5026 ft 265 kts 55°
2026-05-04 21:50 51.52754 -0.27991 5870 ft 273 kts 70°
2026-05-04 21:51 51.53380 -0.25077 6737 ft 279 kts 68°
2026-05-04 21:51 51.54353 -0.22370 7562 ft 282 kts 49°
2026-05-04 21:51 51.55838 -0.20311 8443 ft 284 kts 28°
2026-05-04 21:51 51.57657 -0.19045 9332 ft 287 kts 20°
2026-05-04 21:52 51.59512 -0.17911 10169 ft 291 kts 16°
2026-05-04 21:52 51.61526 -0.16936 10503 ft 315 kts 16°
2026-05-04 21:52 51.63686 -0.15910 10921 ft 332 kts 16°
2026-05-04 21:52 51.65932 -0.14857 11639 ft 338 kts 16°
2026-05-04 21:53 51.68209 -0.13798 12419 ft 342 kts 15°
2026-05-04 21:53 51.70475 -0.12588 13194 ft 346 kts 24°
2026-05-04 21:53 51.72531 -0.10530 13919 ft 350 kts 40°
2026-05-04 21:53 51.74193 -0.07634 14560 ft 355 kts 56°
2026-05-04 21:54 51.75330 -0.04085 15193 ft 359 kts 71°
2026-05-04 21:54 51.75863 -0.00139 15833 ft 362 kts 83°
2026-05-04 21:54 51.76194 0.03907 16483 ft 366 kts 83°
2026-05-04 21:54 51.76528 0.07941 17123 ft 370 kts 83°
2026-05-04 21:55 51.76868 0.12087 17774 ft 374 kts 83°
2026-05-04 21:55 51.77210 0.16272 18402 ft 378 kts 83°
2026-05-04 21:55 51.77557 0.20500 18960 ft 381 kts 83°
2026-05-04 21:55 51.77905 0.24756 19522 ft 384 kts 83°
2026-05-04 21:56 51.78255 0.29053 20086 ft 387 kts 83°
2026-05-04 21:56 51.78605 0.33381 20637 ft 391 kts 84°
2026-05-04 21:56 51.78954 0.37759 21174 ft 394 kts 84°
2026-05-04 21:56 51.79296 0.42089 21689 ft 397 kts 84°
2026-05-04 21:57 51.79648 0.46539 22204 ft 401 kts 84°
2026-05-04 21:57 51.79995 0.50919 22701 ft 404 kts 84°
2026-05-04 21:57 51.80350 0.55450 23201 ft 407 kts 84°
2026-05-04 21:57 51.80704 0.59999 23676 ft 411 kts 84°
2026-05-04 21:58 51.81076 0.64595 24083 ft 414 kts 82°
2026-05-04 21:58 51.81722 0.69157 24484 ft 418 kts 77°
2026-05-04 21:58 51.82434 0.73726 24888 ft 421 kts 77°
2026-05-04 21:58 51.83145 0.78319 25290 ft 424 kts 77°
2026-05-04 21:59 51.83867 0.82960 25679 ft 427 kts 76°
2026-05-04 21:59 51.84652 0.87604 26067 ft 430 kts 75°
2026-05-04 21:59 51.85488 0.92201 26452 ft 433 kts 74°
2026-05-04 21:59 51.86366 0.96863 26831 ft 435 kts 74°
2026-05-04 22:00 51.87256 1.01559 27212 ft 438 kts 74°
2026-05-04 22:00 51.88144 1.06299 27598 ft 440 kts 75°
2026-05-04 22:00 51.89019 1.11060 27975 ft 443 kts 75°
2026-05-04 22:00 51.89885 1.15856 28346 ft 445 kts 75°
2026-05-04 22:01 51.90747 1.20688 28701 ft 448 kts 75°
2026-05-04 22:01 51.91609 1.25545 29047 ft 451 kts 75°
2026-05-04 22:01 51.92481 1.30447 29418 ft 453 kts 75°
2026-05-04 22:01 51.93344 1.35288 29769 ft 455 kts 75°
2026-05-04 22:02 51.94228 1.40242 30105 ft 458 kts 75°
2026-05-04 22:02 51.95110 1.45197 30382 ft 460 kts 75°
2026-05-04 22:02 51.95993 1.50186 30659 ft 462 kts 75°
2026-05-04 22:02 51.96878 1.55215 30944 ft 464 kts 75°
2026-05-04 22:03 51.97760 1.60255 31218 ft 465 kts 75°
2026-05-04 22:03 51.98641 1.65311 31497 ft 467 kts 75°
2026-05-04 22:03 51.99514 1.70360 31880 ft 466 kts 76°
2026-05-04 22:03 52.00337 1.75366 32266 ft 464 kts 76°
2026-05-04 22:04 52.01130 1.80440 32658 ft 463 kts 77°
2026-05-04 22:04 52.01901 1.85526 32985 ft 463 kts 77°
2026-05-04 22:04 52.02657 1.90569 33046 ft 455 kts 77°
2026-05-04 22:05 52.04147 2.00402 33045 ft 445 kts 77°
2026-05-04 22:05 52.05635 2.10134 33050 ft 444 kts 77°
2026-05-04 22:06 52.07106 2.19808 33045 ft 444 kts 77°
2026-05-04 22:06 52.08584 2.29554 33041 ft 444 kts 77°
2026-05-04 22:07 52.10051 2.39297 33037 ft 444 kts 77°
2026-05-04 22:07 52.11512 2.49039 33033 ft 444 kts 77°
2026-05-04 22:07 52.11990 2.53971 33032 ft 441 kts 91°
2026-05-04 22:08 52.11952 2.58936 33024 ft 440 kts 93°
2026-05-04 22:08 52.11804 2.68890 33023 ft 440 kts 93°
2026-05-04 22:09 52.11658 2.78858 33014 ft 441 kts 93°
2026-05-04 22:09 52.11517 2.88765 33011 ft 441 kts 93°
2026-05-04 22:10 52.11373 2.98752 33011 ft 441 kts 93°
2026-05-04 22:10 52.11214 3.08733 33009 ft 442 kts 94°
2026-05-04 22:11 52.11042 3.18733 33013 ft 442 kts 94°
2026-05-04 22:11 52.10866 3.28722 33010 ft 442 kts 94°
2026-05-04 22:12 52.10690 3.38654 33015 ft 442 kts 94°
2026-05-04 22:12 52.10500 3.48648 33015 ft 443 kts 94°
2026-05-04 22:13 52.10295 3.58671 33014 ft 443 kts 94°
2026-05-04 22:13 52.10087 3.68681 33008 ft 443 kts 94°
2026-05-04 22:14 52.09867 3.78619 33005 ft 443 kts 95°
2026-05-04 22:14 52.09639 3.88630 33004 ft 443 kts 95°
2026-05-04 22:15 52.09405 3.98624 32998 ft 443 kts 95°
2026-05-04 22:15 52.09160 4.08628 32995 ft 442 kts 95°
2026-05-04 22:16 52.08903 4.18619 32992 ft 442 kts 95°
2026-05-04 22:16 52.08645 4.28532 32987 ft 442 kts 95°
2026-05-04 22:17 52.08382 4.38257 32987 ft 442 kts 95°
2026-05-04 22:17 52.08102 4.48330 32984 ft 441 kts 95°
2026-05-04 22:18 52.07821 4.58277 32982 ft 441 kts 95°
2026-05-04 22:18 52.07529 4.68260 32979 ft 441 kts 96°
2026-05-04 22:19 52.07228 4.78153 32989 ft 442 kts 96°
2026-05-04 22:19 52.06918 4.88107 32985 ft 442 kts 96°
2026-05-04 22:20 52.06597 4.98090 32978 ft 442 kts 96°
2026-05-04 22:20 52.06276 5.08062 32969 ft 442 kts 96°
2026-05-04 22:21 52.05944 5.17975 32899 ft 444 kts 96°
2026-05-04 22:21 52.05772 5.22976 32627 ft 443 kts 96°
2026-05-04 22:21 52.05598 5.27973 32354 ft 441 kts 96°
2026-05-04 22:21 52.05424 5.32949 32093 ft 440 kts 96°
2026-05-04 22:22 52.05250 5.37896 31830 ft 438 kts 97°
2026-05-04 22:22 52.05072 5.42819 31568 ft 436 kts 97°
2026-05-04 22:22 52.04890 5.47738 31307 ft 435 kts 97°
2026-05-04 22:22 52.04708 5.52616 30862 ft 431 kts 97°
2026-05-04 22:23 52.04528 5.57450 30315 ft 429 kts 97°
2026-05-04 22:23 52.04351 5.62269 29738 ft 427 kts 97°
2026-05-04 22:23 52.04172 5.67062 29201 ft 422 kts 97°
2026-05-04 22:23 52.03989 5.71791 28684 ft 418 kts 97°
2026-05-04 22:24 52.03808 5.76420 28185 ft 414 kts 97°
2026-05-04 22:24 52.03627 5.81109 27678 ft 409 kts 97°
2026-05-04 22:24 52.03449 5.85634 27219 ft 405 kts 97°
2026-05-04 22:24 52.03267 5.90188 26739 ft 401 kts 97°
2026-05-04 22:25 52.03087 5.94688 26286 ft 397 kts 97°
2026-05-04 22:25 52.02905 5.99135 25827 ft 394 kts 97°
2026-05-04 22:25 52.02720 6.03548 25379 ft 390 kts 97°
2026-05-04 22:25 52.02533 6.07937 24912 ft 388 kts 97°
2026-05-04 22:26 52.02342 6.12280 24467 ft 384 kts 99°
2026-05-04 22:26 52.01878 6.16502 24032 ft 377 kts 109°
2026-05-04 22:26 52.00990 6.20471 23569 ft 371 kts 119°
2026-05-04 22:26 51.99878 6.24170 23073 ft 368 kts 120°
2026-05-04 22:27 51.98759 6.27879 22619 ft 364 kts 119°
2026-05-04 22:27 51.97649 6.31560 22170 ft 361 kts 119°
2026-05-04 22:27 51.96550 6.35208 21724 ft 359 kts 119°
2026-05-04 22:27 51.95454 6.38831 21283 ft 357 kts 119°
2026-05-04 22:28 51.94368 6.42429 20845 ft 355 kts 119°
2026-05-04 22:28 51.93285 6.46005 20407 ft 353 kts 119°
2026-05-04 22:28 51.92209 6.49557 19970 ft 351 kts 119°
2026-05-04 22:28 51.91131 6.53048 19534 ft 348 kts 123°
2026-05-04 22:29 51.89729 6.56190 19111 ft 342 kts 136°
2026-05-04 22:29 51.87959 6.58715 18680 ft 338 kts 148°
2026-05-04 22:29 51.85921 6.60541 18204 ft 335 kts 160°
2026-05-04 22:29 51.83731 6.61783 17713 ft 333 kts 161°
2026-05-04 22:30 51.81733 6.63686 17225 ft 336 kts 145°
2026-05-04 22:30 51.79900 6.66049 16749 ft 336 kts 143°
2026-05-04 22:30 51.78113 6.68395 16290 ft 335 kts 143°
2026-05-04 22:30 51.76303 6.70764 15913 ft 333 kts 143°
2026-05-04 22:31 51.74515 6.73100 15593 ft 329 kts 143°
2026-05-04 22:31 51.72745 6.75410 15228 ft 326 kts 143°
2026-05-04 22:31 51.70988 6.77699 14869 ft 325 kts 143°
2026-05-04 22:31 51.69230 6.79982 14512 ft 323 kts 143°
2026-05-04 22:32 51.67473 6.82255 14044 ft 322 kts 143°
2026-05-04 22:32 51.65734 6.84497 13541 ft 320 kts 143°
2026-05-04 22:32 51.64024 6.86697 13015 ft 317 kts 143°
2026-05-04 22:32 51.62309 6.88908 12490 ft 314 kts 143°
2026-05-04 22:33 51.60614 6.91103 11951 ft 312 kts 143°
2026-05-04 22:33 51.58939 6.93283 11425 ft 309 kts 143°
2026-05-04 22:33 51.57281 6.95447 10835 ft 305 kts 143°
2026-05-04 22:33 51.55645 6.97593 10231 ft 301 kts 143°
2026-05-04 22:34 51.54043 6.99704 9606 ft 296 kts 143°
2026-05-04 22:34 51.52471 7.01778 8926 ft 291 kts 143°
2026-05-04 22:34 51.50920 7.03826 8317 ft 285 kts 143°
2026-05-04 22:34 51.49399 7.05833 7709 ft 280 kts 143°
2026-05-04 22:35 51.47909 7.07797 7110 ft 275 kts 144°
2026-05-04 22:35 51.46291 7.09167 6528 ft 263 kts 171°
2026-05-04 22:35 51.44529 7.08983 5924 ft 253 kts 204°
2026-05-04 22:35 51.43162 7.07341 5314 ft 247 kts 231°
2026-05-04 22:36 51.42125 7.05152 4678 ft 245 kts 233°
2026-05-04 22:36 51.41115 7.02971 4048 ft 242 kts 233°
2026-05-04 22:36 51.40122 7.00859 3659 ft 232 kts 233°
2026-05-04 22:36 51.39180 6.98862 3340 ft 219 kts 233°
2026-05-04 22:37 51.38279 6.96956 3054 ft 210 kts 233°
2026-05-04 22:37 51.37414 6.95126 2776 ft 201 kts 233°
2026-05-04 22:37 51.36597 6.93396 2513 ft 194 kts 233°
2026-05-04 22:37 51.35803 6.91719 2258 ft 177 kts 234°
2026-05-04 22:38 51.35108 6.90252 2049 ft 160 kts 233°
2026-05-04 22:38 51.34438 6.88836 1837 ft 156 kts 233°
2026-05-04 22:38 51.33819 6.87532 1617 ft 140 kts 233°
2026-05-04 22:38 51.33244 6.86319 1431 ft 134 kts 233°
2026-05-04 22:39 51.32688 6.85151 1228 ft 132 kts 232°
2026-05-04 22:39 51.32135 6.83985 1070 ft 132 kts 233°
2026-05-04 22:39 51.31577 6.82806 876 ft 134 kts 232°
2026-05-04 22:39 51.31011 6.81622 682 ft 138 kts 233°
2026-05-04 22:40 51.30425 6.80390 508 ft 140 kts 233°
2026-05-04 22:40 51.29830 6.79125 331 ft 141 kts 233°
2026-05-04 22:40 51.29249 6.77900 143 ft 139 kts 233°